Artesia, NM

5:28 AM MDT on October 18, 2017 (GMT -0600)
Artesia Municipal

Weather History for KATS - July, 2014

Change the Weather History Date:

Tuesday, July 1, 2014

  Actual Average Record
Temperature  
Mean Temperature 79 °F -  
Max Temperature 89 °F 93 °F 107 °F (1957)
Min Temperature 69 °F 64 °F 57 °F (1975)
Cooling Degree Days 14    
Growing Degree Days 29 (Base 50)    
Moisture  
Dew Point 61 °F    
Average Humidity 51    
Maximum Humidity 83    
Minimum Humidity 36    
Precipitation  
Precipitation 0.02 in - - ()
Sea Level Pressure  
Sea Level Pressure 29.95 in    
Wind  
Wind Speed 11 mph (East)    
Max Wind Speed 22 mph    
Max Gust Speed 30 mph    
Visibility 10 miles    
Events Rain , Thunderstorm    
Averages and records for this station are not official NWS values.
T = Trace of Precipitation, MM = Missing Value Source: NWS Daily Summary

Daily Weather History Graph

Daily Weather History Graph

Search for Another Location

Airport or City:

Trip Planner

Search our weather history database for the weather conditions in past years. The results will help you decide how hot, cold, wet, or windy it might be!

Date:

Astronomy

Jul. 01, 2014 Rise Set
Actual Time 5:53 AM MDT 8:10 PM MDT
Civil Twilight 5:24 AM MDT 8:38 PM MDT
Nautical Twilight 4:49 AM MDT 9:13 PM MDT
Astronomical Twilight 4:11 AM MDT 9:51 PM MDT
Moon 9:49 AM MDT (7/1) 10:50 PM MDT (7/1)
Length of Visible Light 15h 13m
Length of Day
14h 16m
Waxing Crescent, 17% of the Moon is Illuminated
Jul 1
Waxing Crescent
Jul 5
First Quarter
Jul 12
Full
Jul 18
Last Quarter
Jul 26
New

Hourly Weather History & Observations

Time (MDT) Temp. Heat Index Dew Point Humidity Pressure Visibility Wind Dir Wind Speed Gust Speed Precip Events Conditions
12:15 AM 82.4 °F 83.9 °F 64.4 °F 54% 29.84 in 10.0 mi SSE 19.6 mph 24.2 mph N/A   Clear
12:35 AM 80.6 °F 81.8 °F 62.6 °F 54% 29.81 in 10.0 mi South 21.9 mph 29.9 mph N/A   Clear
12:55 AM 80.6 °F 81.8 °F 62.6 °F 54% 29.83 in 10.0 mi SE 17.3 mph - N/A   Clear
1:15 AM 80.6 °F 81.8 °F 62.6 °F 54% 29.83 in 10.0 mi SSE 17.3 mph - N/A   Clear
1:35 AM 78.8 °F - 62.6 °F 57% 29.82 in 10.0 mi SSE 17.3 mph - N/A   Clear
1:55 AM 78.8 °F - 62.6 °F 57% 29.82 in 10.0 mi SSE 13.8 mph - N/A   Clear
2:15 AM 77.0 °F - 62.6 °F 61% 29.82 in 10.0 mi SSE 13.8 mph - N/A   Clear
2:35 AM 77.0 °F - 62.6 °F 61% 29.81 in 10.0 mi SSE 13.8 mph 18.4 mph N/A   Clear
2:55 AM 77.0 °F - 62.6 °F 61% 29.82 in 10.0 mi SSE 10.4 mph - N/A   Clear
3:15 AM 75.2 °F - 62.6 °F 65% 29.81 in 10.0 mi South 9.2 mph - N/A   Clear
3:35 AM 75.2 °F - 62.6 °F 65% 29.81 in 10.0 mi South 6.9 mph - N/A   Clear
4:15 AM 71.6 °F - 62.6 °F 73% 29.83 in 10.0 mi NW 6.9 mph - N/A   Clear
4:35 AM 71.6 °F - 60.8 °F 69% 29.83 in 10.0 mi NW 4.6 mph - N/A   Clear
5:15 AM 69.8 °F - 60.8 °F 73% 29.84 in 10.0 mi NNE 5.8 mph - N/A   Clear
5:35 AM 69.8 °F - 62.6 °F 78% 29.83 in 10.0 mi East 3.5 mph - N/A   Clear
6:15 AM 69.8 °F - 62.6 °F 78% 29.86 in 10.0 mi NNE 5.8 mph - N/A   Clear
6:35 AM 69.8 °F - 62.6 °F 78% 29.90 in 10.0 mi NNE 10.4 mph - N/A   Clear
7:15 AM 73.4 °F - 62.6 °F 69% 29.95 in 10.0 mi NNE 12.7 mph - N/A   Clear
7:35 AM 75.2 °F - 62.6 °F 65% 29.95 in 10.0 mi NE 9.2 mph - N/A   Clear
7:55 AM 75.2 °F - 62.6 °F 65% 29.96 in 10.0 mi NE 4.6 mph - N/A   Clear
8:15 AM 77.0 °F - 60.8 °F 57% 29.98 in 10.0 mi NW 4.6 mph - N/A   Clear
8:35 AM 77.0 °F - 60.8 °F 57% 30.00 in 10.0 mi North 4.6 mph - N/A   Clear
8:55 AM 80.6 °F 81.1 °F 59.0 °F 48% 30.00 in 10.0 mi North 4.6 mph - N/A   Clear
9:15 AM 80.6 °F 81.1 °F 59.0 °F 48% 30.00 in 10.0 mi Calm Calm - N/A   Clear
9:35 AM 82.4 °F 82.5 °F 59.0 °F 45% 30.01 in 10.0 mi East 6.9 mph - N/A   Clear
10:15 AM 82.4 °F 82.5 °F 59.0 °F 45% 30.03 in 5.0 mi East 6.9 mph - N/A   Haze
10:35 AM 82.4 °F 82.5 °F 59.0 °F 45% 30.03 in 10.0 mi NNE 9.2 mph - N/A   Clear
11:15 AM 84.2 °F 83.5 °F 57.2 °F 40% 30.04 in 10.0 mi ENE 8.1 mph 16.1 mph N/A   Clear
11:35 AM 84.2 °F 83.5 °F 57.2 °F 40% 30.03 in 10.0 mi ENE 10.4 mph 17.3 mph N/A   Clear
11:55 AM 86.0 °F 84.9 °F 57.2 °F 37% 30.03 in 10.0 mi NNE 9.2 mph - N/A   Clear
12:15 PM 86.0 °F 84.9 °F 57.2 °F 37% 30.03 in 10.0 mi ESE 8.1 mph - N/A   Clear
12:35 PM 86.0 °F 84.9 °F 57.2 °F 37% 30.03 in 10.0 mi North 4.6 mph - N/A   Clear
1:15 PM 89.6 °F 88.9 °F 59.0 °F 36% 30.02 in 9.0 mi ESE 6.9 mph 16.1 mph N/A   Clear
1:35 PM 87.8 °F 87.1 °F 59.0 °F 38% 30.01 in 7.0 mi ENE 4.6 mph - N/A   Scattered Clouds
1:55 PM 87.8 °F 87.1 °F 59.0 °F 38% 30.00 in 9.0 mi East 12.7 mph 17.3 mph N/A   Scattered Clouds
2:15 PM 89.6 °F 89.5 °F 60.8 °F 38% 30.00 in 9.0 mi ESE 12.7 mph 17.3 mph N/A   Partly Cloudy
2:35 PM 89.6 °F 88.9 °F 59.0 °F 36% 30.00 in 10.0 mi NE 5.8 mph 21.9 mph N/A   Scattered Clouds
2:55 PM 89.6 °F 88.9 °F 59.0 °F 36% 30.00 in 9.0 mi East 5.8 mph 16.1 mph N/A   Partly Cloudy
3:15 PM 89.6 °F 88.9 °F 59.0 °F 36% 30.00 in 9.0 mi East 6.9 mph - N/A   Partly Cloudy
3:35 PM 89.6 °F 88.9 °F 59.0 °F 36% 30.00 in 9.0 mi ENE 9.2 mph - N/A   Scattered Clouds
3:55 PM 87.8 °F 87.1 °F 59.0 °F 38% 29.99 in 10.0 mi Calm Calm - N/A   Partly Cloudy
4:15 PM 89.6 °F 88.9 °F 59.0 °F 36% 29.99 in 10.0 mi East 6.9 mph - N/A   Partly Cloudy
4:35 PM 84.2 °F 88.4 °F 69.8 °F 62% 29.98 in 5.0 mi North 12.7 mph - 0.01 in Rain Light Rain
4:55 PM 86.0 °F 86.6 °F 62.6 °F 45% 29.98 in 10.0 mi NE 8.1 mph - 0.01 in Rain Light Rain
5:15 PM 87.8 °F 87.6 °F 60.8 °F 40% 29.97 in 10.0 mi East 6.9 mph - N/A   Partly Cloudy
5:35 PM 89.6 °F 88.9 °F 59.0 °F 36% 29.95 in 10.0 mi East 13.8 mph 18.4 mph N/A   Clear
5:55 PM 89.6 °F 89.5 °F 60.8 °F 38% 29.95 in 10.0 mi East 12.7 mph 17.3 mph N/A   Clear
6:15 PM 89.6 °F 89.5 °F 60.8 °F 38% 29.94 in 10.0 mi East 13.8 mph 19.6 mph N/A   Clear
6:35 PM 87.8 °F 87.1 °F 59.0 °F 38% 29.95 in 10.0 mi East 12.7 mph - N/A   Clear
6:55 PM 87.8 °F 87.1 °F 59.0 °F 38% 29.95 in 10.0 mi East 9.2 mph - N/A   Clear
7:15 PM 86.0 °F 85.4 °F 59.0 °F 40% 29.96 in 10.0 mi East 10.4 mph - N/A   Clear
7:35 PM 86.0 °F 85.4 °F 59.0 °F 40% 29.97 in 10.0 mi East 4.6 mph - N/A   Clear
7:55 PM 86.0 °F 85.4 °F 59.0 °F 40% 29.97 in 10.0 mi East 4.6 mph - N/A   Clear
8:15 PM 86.0 °F 86.1 °F 60.8 °F 43% 29.98 in 10.0 mi East 4.6 mph - N/A   Clear
8:35 PM 84.2 °F 84.4 °F 60.8 °F 45% 29.98 in 10.0 mi East 4.6 mph - N/A   Clear
8:55 PM 84.2 °F 84.4 °F 60.8 °F 45% 29.99 in 10.0 mi East 4.6 mph - N/A   Scattered Clouds
9:15 PM 86.0 °F 86.1 °F 60.8 °F 43% 30.00 in 10.0 mi ESE 9.2 mph - N/A   Scattered Clouds
9:35 PM 82.4 °F 82.0 °F 57.2 °F 42% 30.01 in 10.0 mi SSE 11.5 mph - N/A   Scattered Clouds
9:55 PM 80.6 °F 80.8 °F 57.2 °F 45% 30.00 in 10.0 mi SSE 8.1 mph - N/A Thunderstorm Clear
10:15 PM 80.6 °F 80.8 °F 57.2 °F 45% 30.00 in 10.0 mi SSE 11.5 mph - N/A Thunderstorm Partly Cloudy
10:35 PM 77.0 °F - 62.6 °F 61% 30.02 in 9.0 mi North 12.7 mph - N/A Thunderstorm Thunderstorm
11:15 PM 71.6 °F - 66.2 °F 83% 30.06 in 8.0 mi NNE 10.4 mph - N/A Rain , Thunderstorm Light Rain
11:35 PM 73.4 °F - 66.2 °F 78% 30.05 in 10.0 mi SE 4.6 mph - N/A Thunderstorm Mostly Cloudy
11:55 PM 73.4 °F - 66.2 °F 78% 30.04 in 9.0 mi SSE 6.9 mph 18.4 mph 0.01 in Rain , Thunderstorm Light Rain